Belize, Belize

1:14 PM CST on November 24, 2017 (GMT -0600)
Philip S W Goldson International

Weather History for MZBZ - February, 2013

Change the Weather History Date:

Tuesday, February 12, 2013

  Actual Average Record
Temperature  
Mean Temperature 82 °F -  
Max Temperature 86 °F 84 °F 86 °F (2003)
Min Temperature 77 °F - 63 °F (2015)
Cooling Degree Days 16    
Growing Degree Days 32 (Base 50)    
Moisture  
Dew Point 74 °F    
Average Humidity 74    
Maximum Humidity 94    
Minimum Humidity 56    
Precipitation  
Precipitation 0.00 in 0.09 in - ()
Sea Level Pressure  
Sea Level Pressure 29.95 in    
Wind  
Wind Speed 6 mph ()    
Max Wind Speed 10 mph    
Max Gust Speed -    
Visibility 8.7 miles    
Events      
Averages and records for this station are not official NWS values.
T = Trace of Precipitation, MM = Missing Value Source: Averaged Metar Reports

Daily Weather History Graph

Daily Weather History Graph

Search for Another Location

Airport or City:

Trip Planner

Search our weather history database for the weather conditions in past years. The results will help you decide how hot, cold, wet, or windy it might be!

Date:

Astronomy

Feb. 12, 2013 Rise Set
Actual Time 6:21 AM CST 5:53 PM CST
Civil Twilight 5:59 AM CST 6:16 PM CST
Nautical Twilight 5:33 AM CST 6:41 PM CST
Astronomical Twilight 5:07 AM CST 7:07 PM CST
Moon 7:49 AM CST (2/12) 8:18 PM CST (2/12)
Length of Visible Light 12h 17m
Length of Day
11h 32m
Waxing Crescent, 7% of the Moon is Illuminated
Feb 12
Waxing Crescent
Feb 17
First Quarter
Feb 25
Full
Mar 4
Last Quarter
Mar 11
New

Hourly Weather History & Observations

Time (CST) Temp. Heat Index Dew Point Humidity Pressure Visibility Wind Dir Wind Speed Gust Speed Precip Events Conditions
12:00 AM 79 °F - 74 °F 81% 29.99 in 12 mi ESE 4.6 mph - -   Partly Cloudy
3:00 AM 78 °F - 74 °F 84% 29.95 in 12 mi ESE 5.8 mph - -   Partly Cloudy
5:00 AM 78.8 °F - 73.4 °F 83% 29.95 in 6.2 mi ESE 3.5 mph - N/A   Scattered Clouds
6:00 AM 78 °F - 74 °F 85% 29.96 in 12 mi ESE 4.6 mph - -   Partly Cloudy
6:00 AM 77.0 °F - 75.2 °F 94% 29.95 in 6.2 mi ESE 4.6 mph - N/A   Scattered Clouds
7:00 AM 78.8 °F - 73.4 °F 83% 29.95 in 6.2 mi ESE 5.8 mph - N/A   Partly Cloudy
8:00 AM 80.6 °F 86.2 °F 75.2 °F 84% 29.98 in 6.2 mi ESE 6.9 mph - N/A   Partly Cloudy
9:00 AM 84 °F - 74 °F 64% 30.01 in 16 mi SE 8.1 mph - -   Scattered Clouds
9:00 AM 84.2 °F 90.9 °F 73.4 °F 70% 30.00 in 6.2 mi SE 8.1 mph - N/A   Partly Cloudy
10:00 AM 84.2 °F 90.9 °F 73.4 °F 70% 30.01 in 6.2 mi SE 9.2 mph - N/A   Partly Cloudy
11:00 AM 86.0 °F 91.8 °F 71.6 °F 62% 29.99 in 6.2 mi SE 10.4 mph - N/A   Partly Cloudy
12:00 PM 86 °F - 73 °F 56% 29.97 in 16 mi SE 9.2 mph - -   Scattered Clouds
12:00 PM 86.0 °F 93.4 °F 73.4 °F 66% 29.97 in 6.2 mi SE 9.2 mph - N/A   Partly Cloudy
1:00 PM 86.0 °F 96.9 °F 77.0 °F 74% 29.93 in 6.2 mi SE 10.4 mph - N/A   Partly Cloudy
2:00 PM 84.2 °F 89.6 °F 71.6 °F 66% 29.91 in 6.2 mi SE 10.4 mph - N/A   Partly Cloudy
3:00 PM 85 °F - 73 °F 59% 29.90 in 16 mi SE 8.1 mph - -   Scattered Clouds
3:00 PM 86.0 °F 96.9 °F 77.0 °F 74% 29.89 in 6.2 mi SE 8.1 mph - N/A   Partly Cloudy
4:00 PM 84.2 °F 89.6 °F 71.6 °F 66% 29.88 in 6.2 mi SE 9.2 mph - N/A   Partly Cloudy
5:00 PM 84.2 °F 89.6 °F 71.6 °F 66% 29.88 in 6.2 mi East 8.1 mph - N/A   Partly Cloudy
6:00 PM 78.8 °F - 73.4 °F 83% 29.88 in 6.2 mi ESE 3.5 mph - N/A   Partly Cloudy
9:00 PM 78 °F - 74 °F 84% 29.93 in 12 mi ESE 5.8 mph - -   Partly Cloudy